Time,TemperatureF,DewpointF,PressureIn,WindDirection,WindDirectionDegrees,WindSpeedMPH,WindSpeedGustMPH,Humidity,HourlyPrecipIn,Conditions,Clouds,dailyrainin,SoftwareType,DateUTC
2013-02-16 00:01:00,43.4,42.0,30.24,SSW,198,0.0,0.0,94,0.00,,,0.01,weatherlink.com 1.10,2013-02-16 08:01:00,
2013-02-16 00:16:00,42.6,41.0,30.24,SSW,198,0.0,1.0,92,0.00,,,0.00,weatherlink.com 1.10,2013-02-16 08:16:00,
2013-02-16 00:31:00,42.3,41.0,30.24,SSW,198,0.0,0.0,94,0.00,,,0.00,weatherlink.com 1.10,2013-02-16 08:31:00,
2013-02-16 00:47:00,42.3,41.0,30.24,SSW,198,0.0,0.0,95,0.00,,,0.00,weatherlink.com 1.10,2013-02-16 08:47:00,
2013-02-16 01:01:00,41.9,40.0,30.24,SSW,198,0.0,1.0,93,0.00,,,0.00,weatherlink.com 1.10,2013-02-16 09:01:00,
2013-02-16 01:17:00,42.1,41.0,30.24,SSW,198,0.0,1.0,94,0.00,,,0.00,weatherlink.com 1.10,2013-02-16 09:17:00,
2013-02-16 01:32:00,42.1,40.0,30.24,SSW,198,0.0,1.0,93,0.00,,,0.00,weatherlink.com 1.10,2013-02-16 09:32:00,
2013-02-16 01:47:00,41.6,40.0,30.25,SSW,198,1.0,1.0,93,0.00,,,0.00,weatherlink.com 1.10,2013-02-16 09:47:00,
2013-02-16 02:02:00,40.8,39.0,30.24,SSW,198,0.0,2.0,93,0.00,,,0.00,weatherlink.com 1.10,2013-02-16 10:02:00,
2013-02-16 02:17:00,41.0,40.0,30.24,SSW,198,0.0,0.0,95,0.00,,,0.00,weatherlink.com 1.10,2013-02-16 10:17:00,
2013-02-16 02:32:00,41.0,39.0,30.23,SSW,198,0.0,1.0,94,0.00,,,0.00,weatherlink.com 1.10,2013-02-16 10:32:00,
2013-02-16 02:47:00,40.7,39.0,30.23,SSW,198,0.0,0.0,95,0.00,,,0.00,weatherlink.com 1.10,2013-02-16 10:47:00,
2013-02-16 03:02:00,40.5,39.0,30.22,SSW,198,0.0,1.0,94,0.00,,,0.00,weatherlink.com 1.10,2013-02-16 11:02:00,
2013-02-16 03:17:00,39.8,38.0,30.22,SSW,198,0.0,1.0,94,0.00,,,0.00,weatherlink.com 1.10,2013-02-16 11:17:00,
2013-02-16 03:32:00,39.6,38.0,30.21,SSW,198,0.0,0.0,95,0.00,,,0.00,weatherlink.com 1.10,2013-02-16 11:32:00,
2013-02-16 03:47:00,39.2,38.0,30.21,SSW,198,0.0,1.0,95,0.00,,,0.00,weatherlink.com 1.10,2013-02-16 11:47:00,
2013-02-16 04:02:00,39.3,38.0,30.20,SSW,198,0.0,1.0,96,0.00,,,0.00,weatherlink.com 1.10,2013-02-16 12:02:00,
2013-02-16 04:17:00,39.5,38.0,30.20,SSW,198,0.0,2.0,95,0.00,,,0.00,weatherlink.com 1.10,2013-02-16 12:17:00,
2013-02-16 04:32:00,39.4,38.0,30.20,SSW,198,0.0,1.0,95,0.00,,,0.00,weatherlink.com 1.10,2013-02-16 12:32:00,
2013-02-16 04:47:00,39.3,38.0,30.20,SSW,198,0.0,1.0,95,0.00,,,0.00,weatherlink.com 1.10,2013-02-16 12:47:00,
2013-02-16 05:02:00,39.5,38.0,30.20,SSW,198,0.0,1.0,95,0.00,,,0.00,weatherlink.com 1.10,2013-02-16 13:02:00,
2013-02-16 05:17:00,39.1,38.0,30.20,SSW,198,0.0,1.0,95,0.00,,,0.00,weatherlink.com 1.10,2013-02-16 13:17:00,
2013-02-16 05:32:00,38.8,38.0,30.20,SSW,198,0.0,2.0,95,0.00,,,0.00,weatherlink.com 1.10,2013-02-16 13:32:00,
2013-02-16 05:47:00,38.8,38.0,30.19,SSW,198,0.0,1.0,95,0.00,,,0.00,weatherlink.com 1.10,2013-02-16 13:47:00,
2013-02-16 06:02:00,38.6,37.0,30.19,SSW,198,0.0,1.0,95,0.00,,,0.00,weatherlink.com 1.10,2013-02-16 14:02:00,
2013-02-16 06:17:00,38.5,38.0,30.19,SSW,198,0.0,1.0,96,0.00,,,0.00,weatherlink.com 1.10,2013-02-16 14:17:00,
2013-02-16 06:32:00,38.7,38.0,30.19,SSW,198,0.0,1.0,96,0.00,,,0.00,weatherlink.com 1.10,2013-02-16 14:32:00,
2013-02-16 06:47:00,38.6,38.0,30.19,SSW,198,0.0,1.0,96,0.00,,,0.00,weatherlink.com 1.10,2013-02-16 14:47:00,
2013-02-16 07:02:00,39.0,38.0,30.19,SSW,198,0.0,1.0,96,0.00,,,0.00,weatherlink.com 1.10,2013-02-16 15:02:00,
2013-02-16 07:17:00,38.8,38.0,30.19,SSW,198,0.0,0.0,96,0.00,,,0.00,weatherlink.com 1.10,2013-02-16 15:17:00,
2013-02-16 07:32:00,38.8,38.0,30.20,SSW,198,0.0,0.0,96,0.00,,,0.00,weatherlink.com 1.10,2013-02-16 15:32:00,
2013-02-16 07:47:00,39.1,38.0,30.20,SSW,198,0.0,0.0,97,0.00,,,0.00,weatherlink.com 1.10,2013-02-16 15:47:00,
2013-02-16 08:02:00,39.7,39.0,30.20,SSW,198,0.0,0.0,97,0.00,,,0.00,weatherlink.com 1.10,2013-02-16 16:02:00,
2013-02-16 08:17:00,40.4,40.0,30.20,SSW,198,0.0,0.0,97,0.00,,,0.00,weatherlink.com 1.10,2013-02-16 16:17:00,
2013-02-16 08:32:00,41.6,41.0,30.20,SSW,198,0.0,0.0,98,0.00,,,0.00,weatherlink.com 1.10,2013-02-16 16:32:00,
2013-02-16 08:47:00,42.8,42.0,30.20,SSW,198,0.0,0.0,98,0.00,,,0.00,weatherlink.com 1.10,2013-02-16 16:47:00,
2013-02-16 09:02:00,44.5,44.0,30.20,SSW,198,0.0,1.0,97,0.00,,,0.00,weatherlink.com 1.10,2013-02-16 17:02:00,
2013-02-16 09:17:00,46.2,45.0,30.20,SSW,198,0.0,1.0,95,0.00,,,0.00,weatherlink.com 1.10,2013-02-16 17:17:00,
2013-02-16 09:33:00,48.0,45.0,30.20,SSW,198,0.0,0.0,90,0.00,,,0.00,weatherlink.com 1.10,2013-02-16 17:33:00,
2013-02-16 09:48:00,49.3,45.0,30.20,SSW,198,0.0,0.0,85,0.00,,,0.00,weatherlink.com 1.10,2013-02-16 17:48:00,
2013-02-16 10:03:00,50.8,46.0,30.20,SSW,199,0.0,3.0,82,0.00,,,0.00,weatherlink.com 1.10,2013-02-16 18:03:00,
2013-02-16 10:18:00,52.5,46.0,30.19,SSW,199,0.0,1.0,79,0.00,,,0.00,weatherlink.com 1.10,2013-02-16 18:18:00,
2013-02-16 10:33:00,54.4,47.0,30.19,WSW,238,0.0,4.0,75,0.00,,,0.00,weatherlink.com 1.10,2013-02-16 18:33:00,
2013-02-16 10:48:00,55.7,47.0,30.18,WSW,238,0.0,3.0,72,0.00,,,0.00,weatherlink.com 1.10,2013-02-16 18:48:00,
2013-02-16 11:03:00,57.3,48.0,30.18,WSW,256,1.0,2.0,72,0.00,,,0.00,weatherlink.com 1.10,2013-02-16 19:03:00,
2013-02-16 11:18:00,59.0,48.0,30.18,SW,223,1.0,4.0,66,0.00,,,0.00,weatherlink.com 1.10,2013-02-16 19:18:00,
2013-02-16 11:33:00,60.5,48.0,30.17,NW,322,0.0,3.0,63,0.00,,,0.00,weatherlink.com 1.10,2013-02-16 19:33:00,
2013-02-16 11:48:00,62.1,47.0,30.16,NW,309,1.0,3.0,58,0.00,,,0.00,weatherlink.com 1.10,2013-02-16 19:48:00,
2013-02-16 12:03:00,63.0,46.0,30.16,SSW,211,2.0,4.0,54,0.00,,,0.00,weatherlink.com 1.10,2013-02-16 20:03:00,
2013-02-16 12:18:00,64.1,47.0,30.14,WSW,243,1.0,2.0,54,0.00,,,0.00,weatherlink.com 1.10,2013-02-16 20:18:00,
2013-02-16 12:33:00,65.6,47.0,30.14,SW,234,2.0,5.0,51,0.00,,,0.00,weatherlink.com 1.10,2013-02-16 20:33:00,
2013-02-16 12:48:00,66.3,45.0,30.13,WSW,243,3.0,4.0,46,0.00,,,0.00,weatherlink.com 1.10,2013-02-16 20:48:00,
2013-02-16 13:03:00,67.1,46.0,30.12,WNW,290,1.0,3.0,47,0.00,,,0.00,weatherlink.com 1.10,2013-02-16 21:03:00,
2013-02-16 13:19:00,68.3,45.0,30.11,SW,214,1.0,4.0,43,0.00,,,0.00,weatherlink.com 1.10,2013-02-16 21:19:00,
2013-02-16 13:34:00,69.3,46.0,30.10,WNW,294,1.0,4.0,43,0.00,,,0.00,weatherlink.com 1.10,2013-02-16 21:34:00,
2013-02-16 13:49:00,69.6,45.0,30.10,SE,137,0.0,4.0,41,0.00,,,0.00,weatherlink.com 1.10,2013-02-16 21:49:00,
2013-02-16 14:04:00,70.0,46.0,30.09,NNE,27,0.0,3.0,43,0.00,,,0.00,weatherlink.com 1.10,2013-02-16 22:04:00,
2013-02-16 14:19:00,70.6,47.0,30.08,SE,138,2.0,5.0,43,0.00,,,0.00,weatherlink.com 1.10,2013-02-16 22:19:00,
2013-02-16 14:34:00,71.5,49.0,30.07,North,5,3.0,6.0,45,0.00,,,0.00,weatherlink.com 1.10,2013-02-16 22:34:00,
2013-02-16 14:49:00,71.7,49.0,30.07,North,9,4.0,4.0,44,0.00,,,0.00,weatherlink.com 1.10,2013-02-16 22:49:00,
2013-02-16 15:04:00,71.1,48.0,30.07,NNE,24,1.0,4.0,44,0.00,,,0.00,weatherlink.com 1.10,2013-02-16 23:04:00,
2013-02-16 15:19:00,72.1,48.0,30.06,SE,126,0.0,4.0,43,0.00,,,0.00,weatherlink.com 1.10,2013-02-16 23:19:00,
2013-02-16 15:34:00,72.7,51.0,30.06,East,94,0.0,3.0,46,0.00,,,0.00,weatherlink.com 1.10,2013-02-16 23:34:00,
2013-02-16 15:49:00,72.8,50.0,30.06,ESE,109,0.0,2.0,45,0.00,,,0.00,weatherlink.com 1.10,2013-02-16 23:49:00,
2013-02-16 16:04:00,73.2,50.0,30.05,North,11,2.0,3.0,44,0.00,,,0.00,weatherlink.com 1.10,2013-02-17 00:04:00,
2013-02-16 16:19:00,73.3,50.0,30.05,NNE,32,2.0,2.0,44,0.00,,,0.00,weatherlink.com 1.10,2013-02-17 00:19:00,
2013-02-16 16:34:00,72.8,50.0,30.05,ENE,78,1.0,4.0,44,0.00,,,0.00,weatherlink.com 1.10,2013-02-17 00:34:00,
2013-02-16 16:49:00,72.1,48.0,30.05,North,360,0.0,2.0,42,0.00,,,0.00,weatherlink.com 1.10,2013-02-17 00:49:00,
2013-02-16 17:04:00,71.2,47.0,30.04,ESE,121,0.0,2.0,42,0.00,,,0.00,weatherlink.com 1.10,2013-02-17 01:04:00,
2013-02-16 17:19:00,69.5,47.0,30.04,East,95,0.0,2.0,45,0.00,,,0.00,weatherlink.com 1.10,2013-02-17 01:19:00,
2013-02-16 17:34:00,67.4,46.0,30.05,NNE,17,0.0,3.0,47,0.00,,,0.00,weatherlink.com 1.10,2013-02-17 01:34:00,
2013-02-16 17:49:00,64.5,46.0,30.04,North,9,0.0,1.0,51,0.00,,,0.00,weatherlink.com 1.10,2013-02-17 01:49:00,
2013-02-16 18:04:00,61.9,47.0,30.05,North,9,0.0,1.0,58,0.00,,,0.00,weatherlink.com 1.10,2013-02-17 02:04:00,
2013-02-16 18:19:00,59.4,46.0,30.05,North,9,1.0,2.0,62,0.00,,,0.00,weatherlink.com 1.10,2013-02-17 02:19:00,
2013-02-16 18:34:00,57.2,46.0,30.05,South,184,0.0,2.0,67,0.00,,,0.00,weatherlink.com 1.10,2013-02-17 02:34:00,
2013-02-16 18:49:00,55.2,46.0,30.05,South,184,0.0,1.0,70,0.00,,,0.00,weatherlink.com 1.10,2013-02-17 02:49:00,
2013-02-16 19:04:00,53.7,45.0,30.06,South,184,1.0,1.0,73,0.00,,,0.00,weatherlink.com 1.10,2013-02-17 03:04:00,
2013-02-16 19:19:00,51.6,45.0,30.05,South,184,0.0,2.0,77,0.00,,,0.00,weatherlink.com 1.10,2013-02-17 03:19:00,
2013-02-16 19:34:00,50.4,44.0,30.06,South,184,0.0,1.0,79,0.00,,,0.00,weatherlink.com 1.10,2013-02-17 03:34:00,
2013-02-16 19:49:00,49.5,44.0,30.05,South,190,0.0,1.0,82,0.00,,,0.00,weatherlink.com 1.10,2013-02-17 03:49:00,
2013-02-16 20:04:00,48.6,44.0,30.05,South,190,0.0,1.0,83,0.00,,,0.00,weatherlink.com 1.10,2013-02-17 04:04:00,
2013-02-16 20:19:00,47.5,43.0,30.06,South,190,0.0,1.0,84,0.00,,,0.00,weatherlink.com 1.10,2013-02-17 04:19:00,
2013-02-16 20:34:00,46.2,43.0,30.06,South,190,1.0,2.0,87,0.00,,,0.00,weatherlink.com 1.10,2013-02-17 04:34:00,
2013-02-16 20:49:00,45.4,42.0,30.06,South,190,1.0,2.0,89,0.00,,,0.00,weatherlink.com 1.10,2013-02-17 04:49:00,
2013-02-16 21:04:00,44.8,42.0,30.06,South,190,0.0,2.0,91,0.00,,,0.00,weatherlink.com 1.10,2013-02-17 05:04:00,
2013-02-16 21:19:00,44.6,43.0,30.06,SSW,199,1.0,2.0,92,0.00,,,0.00,weatherlink.com 1.10,2013-02-17 05:19:00,
2013-02-16 21:34:00,44.5,42.0,30.06,SSW,198,0.0,1.0,91,0.00,,,0.00,weatherlink.com 1.10,2013-02-17 05:34:00,
2013-02-16 21:49:00,43.8,41.0,30.06,SSW,199,0.0,1.0,91,0.00,,,0.00,weatherlink.com 1.10,2013-02-17 05:49:00,
2013-02-16 22:04:00,42.9,41.0,30.06,SSW,199,1.0,1.0,91,0.00,,,0.00,weatherlink.com 1.10,2013-02-17 06:04:00,
2013-02-16 22:19:00,42.3,41.0,30.06,SSW,199,0.0,1.0,93,0.00,,,0.00,weatherlink.com 1.10,2013-02-17 06:19:00,
2013-02-16 22:34:00,41.8,40.0,30.06,SSW,199,0.0,1.0,93,0.00,,,0.00,weatherlink.com 1.10,2013-02-17 06:34:00,
2013-02-16 22:49:00,41.5,40.0,30.06,SSW,199,0.0,0.0,93,0.00,,,0.00,weatherlink.com 1.10,2013-02-17 06:49:00,
2013-02-16 23:04:00,41.0,39.0,30.05,SSW,199,0.0,1.0,94,0.00,,,0.00,weatherlink.com 1.10,2013-02-17 07:04:00,
2013-02-16 23:19:00,40.6,39.0,30.05,SSW,199,0.0,1.0,94,0.00,,,0.00,weatherlink.com 1.10,2013-02-17 07:19:00,
2013-02-16 23:34:00,40.2,39.0,30.05,SSW,199,0.0,1.0,94,0.00,,,0.00,weatherlink.com 1.10,2013-02-17 07:34:00,
2013-02-16 23:49:00,40.0,39.0,30.05,WSW,238,0.0,5.0,94,0.00,,,0.00,weatherlink.com 1.10,2013-02-17 07:49:00,